Regional Weather Roundup
Issued by NWS

Home | Current Version | Previous Version | Text Only | Print | Product List | Glossary Off
Versions: 1 2 3 4 5 6 7 8 9 10 11 12 13 14 15 16 17 18 19 20 21 22 23 24 25 26 27 28 29 30 31 32 33 34 35 36 37 38 39 40 41 42 43 44 45 46 47 48 49 50

000
ASUS43 KFSD 191810
RWRSD

WEATHER ROUNDUP FOR SOUTH DAKOTA
NATIONAL WEATHER SERVICE SIOUX FALLS SD
1200 PM CST FRI DEC 19 2014

NOTE: "FAIR" INDICATES FEW OR NO CLOUDS BELOW 12,000 FEET WITH NO
SIGNIFICANT WEATHER AND/OR OBSTRUCTIONS TO VISIBILITY.


SDZ001>005-009-010-012>017-191900-
NORTHWEST AND NORTH CENTRAL SOUTH DAKOTA

CITY           SKY/WX    TMP DP  RH WIND       PRES   REMARKS
BUFFALO          N/A     38  24  57 W12       29.88F
FAITH            N/A     35  28  75 W9        29.95F WCI  28
MOBRIDGE       PTSUNNY   29  25  85 SE8       29.94F WCI  21
$$

SDZ012>016-024>037-041>051-057-063-072>074-191900-
SOUTHWEST AND SOUTH CENTRAL SOUTH DAKOTA

CITY           SKY/WX    TMP DP  RH WIND       PRES   REMARKS
RAPID CTY ARPT MOSUNNY   48  22  35 CALM      29.96F
PIERRE         CLOUDY    24  21  88 CALM      30.00F
CUSTER         PTSUNNY   40  17  39 VRB7      29.95F
ELLSWORTH AFB  MOSUNNY   45  22  40 SW1       29.96F
PHILIP         MOSUNNY   40  25  55 W6        29.98F
PINE RIDGE     SUNNY     36  20  52 SW13      29.99F
SPEARFISH      FAIR      43  21  42 W7        29.96F
WINNER         FAIR      32  21  64 S6        30.00F WCI  26
$$

SDZ004>011-016>023-039-040-191900-
NORTHEAST SOUTH DAKOTA

CITY           SKY/WX    TMP DP  RH WIND       PRES   REMARKS
ABERDEEN       CLOUDY    30  26  85 S18       30.03F FOG     WCI  18
WATERTOWN      CLOUDY    27  26  96 S17       30.04F FOG     WCI  14
$$

SDZ017-020-022-023-036>040-048>070-191900-
SOUTHEAST SOUTH DAKOTA

CITY           SKY/WX    TMP DP  RH WIND       PRES   REMARKS
SIOUX FALLS    CLOUDY    30  27  88 S17       30.13F WCI  18
HURON          CLOUDY    29  27  92 MISG      30.06F FOG
CHAMBERLAIN    PTSUNNY   23  21  92 SE6       30.03F WCI  16
MITCHELL       CLOUDY    30  28  92 S9        30.10F FOG     WCI  22
YANKTON        CLOUDY    30  27  86 S12       30.14F WCI  21
$$

ABBREVIATIONS USED IN REMARKS
   TC - TEMPERATURE IN CELSIUS
  WCI - WIND CHILL INDEX
   HX - HEAT INDEX
  VSB - VISIBILITY



USA.gov is the U.S. government's official web portal to all federal, state and local government web resources and services.